Location: Wayland
(32.6094°N, 98.8289°W)
Time: 20:33:46
(UTC+00:00)

Tiangong - Visible Passes

Search period start: 14 July 2024 00:00
Search period end: 24 July 2024 00:00
Orbit: 373 x 378 km, 41.5° (Epoch: 14 July)

Date Brightness Start Highest point End Pass type
(mag) Time Alt. Az. Time Alt. Az. Time Alt. Az.
14 Jul -0.6 09:30:45 32° N 09:30:45 32° N 09:33:11 10° NE visible
14 Jul 0.5 11:05:29 10° NW 11:07:31 16° N 11:09:33 10° NE visible
15 Jul 0.3 10:02:58 13° NW 10:04:42 18° N 10:06:59 10° NE visible
16 Jul 0.6 09:03:06 19° NNE 09:03:06 19° NNE 09:04:28 10° NE visible
16 Jul 0.6 10:37:09 10° NW 10:39:08 16° N 10:41:07 10° NE visible
17 Jul 0.4 09:35:12 15° NNW 09:36:08 16° N 09:38:12 10° NE visible
17 Jul 0.4 11:11:06 10° NW 11:13:28 20° NNE 11:15:50 10° ENE visible
18 Jul 1.5 08:35:17 11° NE 08:35:17 11° NE 08:35:26 10° NE visible
18 Jul 0.7 10:08:20 10° NW 10:10:25 16° N 10:12:30 10° NE visible
19 Jul 0.8 09:07:25 15° N 09:07:25 15° N 09:09:14 10° NE visible
19 Jul 0.1 10:41:54 10° NW 10:44:31 25° NNE 10:47:09 10° ENE visible
20 Jul 0.5 09:39:37 13° NNW 09:41:21 19° N 09:43:38 10° ENE visible
21 Jul 1.5 08:39:58 10° NE 08:39:58 10° NE 08:40:04 10° NE visible
21 Jul -0.5 10:12:19 10° NW 10:15:12 34° NNE 10:18:03 10° E visible
22 Jul 0.5 09:12:39 21° NE 09:12:39 21° NE 09:14:27 10° ENE visible
22 Jul -2.3 10:45:38 10° WNW 10:48:43 73° SSW 10:51:47 10° SE visible
23 Jul -1.3 09:45:46 50° NE 09:45:46 50° NE 09:48:32 10° ESE visible
